Location: Limoges
(45.8354°N, 1.2645°E)
Time: 18:51:17
(UTC+02:00)

Vanguard 2 Rocket - Pass Details

Date: 22 February 2024
Orbit: 555 x 3307 km, 32.9° (Epoch: 23 April)

Event Time Altitude Azimuth Distance (km) Brightness Sun altitude
Rises 19:47:54 0° 267° (W) 5,825 13.0 -14.1°
Reaches altitude 10° 19:51:27 10° 262° (W) 5,133 12.1 -14.7°
Maximum altitude 20:06:33 47° 196° (SSW) 3,819 10.1 -17.4°
Enters shadow 20:24:30 11° 132° (SE) 6,073 10.6 -20.5°
